ELECTRON KICK STAGE R/B, 67616

Orbit data source: Space-Track

ELECTRON KICK STAGE R/B, 67616 is space debris in SSO originally from a launch on Fri, 30 Jan 2026 UTC launched from the Rocket Lab Launch Complex (RLLC). Debris objects in space refer to the collection of defunct objects orbiting the Earth. Examples of debris include non-operational satellites, rocket bodies, and fragments generated from explosions, collisions, or faulty payload assembly.

Loading next visibility...
Identifier
67616, 2026-019C
Orbit
SSO
Country
Flag of USUS
Related business
Manufacturer
Rocket Lab
Mission
Spacecraft
Bus & Motor
KICK STAGE, CURIE
Mass
~50 kg wet, ~50 kg dry
Launch date (UTC)
2026-01-30 (1 week ago)
Launch vehicle
Unknown
Launch site
Rocket Lab Launch Complex (RLLC)
Object type
Payload
Rocket body
Debris
Shape & HBR
Unknown
Radar Cross Section
RCS unknown

Expand to show TLE details & history
Last TLE update: 10 hours ago

TLE from 10 hours ago
0 ELECTRON KICK STAGE R/B
1 67616U 26019C   26039.92502559  .00339055  33058-4  17605-2 0  9990
2 67616  97.4055 165.2614 0190877 226.6712 131.8500 15.59208080  1536
Epoch: 2026-02-08T22:12Z
TLE epoch observation values (Epoch: 2026-02-08T22:12:02.210Z)
Latitude
-0.00007°
Longitude
53.22499°
Altitude
480.645 km
Speed
7.576 km/s
True Right ascension
11h 01m 02s
True Declination
0° 00' 00"
Sunlit
Object was in full shadow at epoch
Visualization orbit readout
Latitude
Unknown
Longitude
Unknown
Altitude
Unknown
Speed
Unknown
Apparent Right ascension
Unknown
Apparent Declination
Unknown
Sunlit
N/A
Visualization observer readout
Local Sidereal Time
10:12:17
Azimuth
Unknown
Elevation
Unknown
Doppler factor
Unknown
Orbital elements
Apogee altitude
515.988 km
Perigee altitude
257.732 km
Semi-major axis
6,764.997 km
Eccentricity
0.01909
Inclination
97.4055°
RAAN
165.2614°
Arg. of periapsis
226.6712°
True anomaly
133.45354°
Mean anomaly
131.85°
Eccentric anomaly
132.65433°
Mean motion
3.90069 °/min
Orbital period
92.29 mins
BSTAR
0.0017605
Loading maneuver chart data...
Computing Atmospheric mass density...
Loading historical data...
Loading historical data...
Loading historical data...
Loading historical data...
Loading historical data...
Loading historical data...
Loading historical data...
Other satellites on launch #19 in the year 2026 (2026-01-30 UTC)

Documentation

Showing up to 5 results
|